Back to catalog

STARLINK-3093

AliveCommunicationsVLEO
NORAD 49141·PAYLOAD·🇺🇸 United States

Launched Sep 14, 2021 from Vandenberg Space Force Base

Loading…

Next Passes (next 24 hours)

TLE

FreshSource: CelesTrak SupGP

Epoch: Sep 14, 2026, 13:53 UTC

1 49141C 21082M   26257.57895833  .00044015  00000+0  36885-2 0  2574
2 49141  70.0017 178.2086 0002911 266.5151 121.6641 14.98310203    10

Track STARLINK-3093 in real time with AllMySat

Download on the App Store